www.pogodaiklimat.ru

АРХИВ ПОГОДЫ в Сан-Франциско

Время (UTC), дата Ветер
(напр.,м/с)
 
Видим.   Явления Облачность Т
(С)
Тd
(С)
f
(%)
Тe
(С)
Тes
(С)
Комфортность

P
(гПа)

Po
(гПа)
Тmin
(С)
Tmax
(С)
R
(мм)
SD
(см)
00:56 27.09 З  16 км    10/10 60 м
[средняя] 
0.0  0.0  100  -8  -8    1013.5  1013.1  +12.8  +16.7  0.3   
01:56 27.09 СЗ  16 км    10/10 60 м
[средняя] 
0.0  0.0  100  -8  -8    1013.9  1013.4  +12.8  +16.7  0.3   
02:56 27.09 СЗ  16 км    10/10 60 м
[средняя] 
0.0  0.0  100  -7  -7    1014.3  1013.7  +12.8  +16.7  0.3   
03:56 27.09 СЗ  16 км    10/10 60 м
[средняя] 
0.0  0.0  100  -6  -6    1014.7  1014.4  +12.8  +16.7  0.3   
04:56 27.09 З  16 км    10/10 60 м
[средняя] 
0.0  0.0  100  -6  -6    1014.7  1014.4  +12.8  +16.7  0.3   
05:56 27.09 З  16 км    10/10 60 м
[средняя] 
0.0  0.0  100  -6  -6    1014.4  1014.1  +11.1  +12.8  0.3   
06:56 27.09 З  16 км    10/10 60 м
[средняя] 
0.0  0.0  100  -6  -6    1014.2  1013.7  +11.1  +12.8  0.3   
07:56 27.09 З   16 км    10/10 60 м
[средняя] 
0.0  0.0  100  -6  -6    1014.0  1013.4  +11.1  +12.8  0.3   
08:56 27.09 З  16 км    10/10 60 м
[средняя] 
0.0  0.0  100  -6  -6    1014.0  1013.4  +11.1  +12.8  0.3   
09:56 27.09 З  16 км    10/10 60 м
[средняя] 
0.0  0.0  100  -7  -7    1013.8  1013.4  +11.1  +12.8  0.3   
10:56 27.09 З  16 км    10/10 60 м
[средняя] 
0.0  0.0  100  -7  -7    1013.8  1013.4  +11.1  +12.8  0.3   
11:56 27.09 З  16 км    10/10 60 м
[средняя] 
0.0  0.0  100  -6  -6    1013.9  1013.4  +11.1  +16.1  0.3   
13:56 27.09 З  5 км    10/10 60 м
[средняя] 
0.0  0.0  100  -5  -5    1014.5  1014.1  +11.1  +16.1  0.3   
14:15 27.09 З  3 км    10/10 60 м
[средняя] 
0.0  0.0  100  -5  -5    1014.5  1014.1  +11.1  +16.1  0.3   
15:56 27.09 СЗ  6 км    10/10 90 м
[средняя] 
0.0  0.0  100  -5  -5    1014.7  1014.4  +11.1  +16.1  0.3   
16:56 27.09 СЗ  11 км    10/10 120 м
[средняя] 
0.0  0.0  100  -6  -6    1014.4  1014.1  +11.1  +16.1  0.3   
17:56 27.09 СЗ  16 км    10/10 120 м
[средняя] 
0.0  0.0  100  -8  -8    1013.8  1013.4  +14.4  +17.8  0.3   
18:56 27.09 СЗ  16 км    10/10 м
[средняя] 
0.0  0.0  100  -8  -8    1013.4  1013.1  +14.4  +17.8  0.3   
19:56 27.09 СЗ  16 км    10/10 м
[средняя] 
0.0  0.0  100  -8  -8    1012.5  1012.1  +14.4  +17.8  0.3   
20:56 27.09 З  16 км    10/10 м
[средняя] 
0.0  0.0  100  -8  -8    1011.9  1011.4  +14.4  +17.8  0.3   
21:56 27.09 СЗ  16 км    10/10 м
[средняя] 
0.0  0.0  100  -8  -8    1011.3  1011.0  +14.4  +17.8  0.3   
22:56 27.09 З  16 км    10/10 м
[средняя] 
0.0  0.0  100  -9  -9    1011.2  1010.7  +14.4  +17.8  0.3   
23:56 27.09 З  16 км    10/10 м
[средняя] 
0.0  0.0  100  -9  -9    1011.2  1010.7  +12.8  +15.0  0.3   
00:56 28.09 З  16 км    10/10 м
[средняя] 
0.0  0.0  100  -8  -8    1011.2  1010.7  +12.8  +15.0  0.3   
01:56 28.09 З  16 км    10/10 м
[средняя] 
0.0  0.0  100  -7  -7    1011.3  1011.0  +12.8  +15.0  0.3   
02:56 28.09 СЗ  16 км    10/10 м
[средняя] 
0.0  0.0  100  -7  -7    1011.6  1011.0  +12.8  +15.0  0.3   
03:56 28.09 З  16 км    10/10 м
[средняя] 
0.0  0.0  100  -6  -6    1011.6  1011.4  +12.8  +15.0  0.3   
04:56 28.09 З  16 км    10/10 м
[средняя] 
0.0  0.0  100  -6  -6    1011.7  1011.4  +12.8  +15.0  0.3   
05:56 28.09 З  16 км    10/10 м
[средняя] 
0.0  0.0  100  -6  -6    1011.7  1011.4  +11.7  +13.3  0.3   
06:56 28.09 З  16 км    10/10 м
[средняя] 
0.0  0.0  100  -6  -6    1011.7  1011.4  +11.7  +13.3  0.3   
07:56 28.09 З   16 км    10/10 м
[средняя] 
0.0  0.0  100  -5  -5    1012.0  1011.7  +11.7  +13.3  0.3   
08:56 28.09 З   16 км    10/10 м
[средняя] 
0.0  0.0  100  -5  -5    1011.9  1011.4  +11.7  +13.3  0.3   
09:56 28.09 штиль  16 км    10/10 м
[средняя] 
0.0  0.0  100  -1  -1    1011.5  1011.0  +11.7  +13.3  0.3   
10:56 28.09 Ю  16 км    10/10 м
[средняя] 
0.0  0.0  100  -5  -5    1011.4  1011.0  +11.7  +13.3  0.3   
11:56 28.09 ЮЗ  16 км    10/10 м
[средняя] 
0.0  0.0  100  -3  -3    1011.7  1011.4  +12.8  +16.1  0.3   
12:56 28.09 ЮЗ  16 км    10/10 м
[средняя] 
0.0  0.0  100  -5  -5    1011.9  1011.4  +12.8  +16.1  0.3   
13:56 28.09 З  16 км    10/10 м
[средняя] 
0.0  0.0  100  -5  -5    1012.2  1011.7  +12.8  +16.1  0.3   
14:48 28.09 Ю  16 км    10/10 м
[средняя] 
0.0  0.0  100  -5  -5    1012.5  1012.1  +12.8  +16.1  0.3   
15:56 28.09 З  16 км    10/10 м
[средняя] 
+14.0  +11.0  82  +13  +13    1012.5  1012.1  +12.8  +16.1  0.3   
16:56 28.09 ЮЗ  16 км    10/10 м
[средняя] 
+16.1  +11.1  72  +15  +15    1012.6  1012.1  +12.8  +16.1  0.3   
17:56 28.09 ЮЗ  16 км    10/10 м
[средняя] 
0.0  0.0  100  -7  -7    1012.4  1012.1  +16.1  +20.0  0.3   
18:56 28.09 З  16 км    10/10 м
[средняя] 
0.0  0.0  100  -8  -8    1012.0  1011.7  +16.1  +20.0  0.3   
19:31 28.09 З   7
{10} 
16 км    10/10 м
[средняя] 
0.0  0.0  100  -8  -8    1011.4  1011.4  +16.1  +20.0  0.3   
20:56 28.09 З   16 км    10/10 м
[средняя] 
0.0  0.0  100  -8  -8    1010.8  1010.4  +16.1  +20.0  0.3   
21:56 28.09 З  7
{9} 
16 км    10/10 м
[средняя] 
0.0  0.0  100  -8  -8    1010.6  1010.0  +16.1  +20.0  0.3   
22:56 28.09 ЮЗ  16 км    10/10 м
[средняя] 
0.0  0.0  100  -8  -8    1010.1  1009.7  +16.1  +20.0  0.3   
23:56 28.09 З  16 км    10/10 м
[средняя] 
0.0  0.0  100  -8  -8    1010.0  1009.7  +16.1  +18.3  0.3   
00:56 29.09 З  16 км    10/10 м
[средняя] 
0.0  0.0  100  -7  -7    1009.9  1009.3  +16.1  +18.3  0.3   

 

Местоположение метеостанции San Francisco International Airport: широта 37.6196 долгота -122.3656 высота над уровнем моря 3 м.

В архиве по умолчанию представлена погода в Сан-Франциско за последние 1-2 суток. Обновление информации о фактической погоде в базе происходит ежечасно! Архивные данные за месяц целиком и за предыдущие месяцы Вы можете получить, выбрав интересующий диапазон дат из раскрывающегося списка и нажав кнопку "Ввод!".

Внимание! Архив погоды МЕТАР в базе сайта в настоящее время начинается c 1 января 2013 г. Нет смысла пытаться выбрать более раннюю дату.

Внимание! Время в таблицах - всемирное. Для получения местного времени необходимо прибавить поправку, которая в Сан-Франциско равна -8 ч.

Ветер - указаны скорость ветра в м/с и направление, откуда дует ветер: С - северный, СВ - северо-восточный, В - восточный, ЮВ - юго-восточный, Ю - южный, ЮЗ - юго-западный, З - западный, СЗ - северо-западный.
Видимость - горизонтальная дальность видимости в метрах или километрах. При видимости от 1 до 10 км при отсутствии осадков обычно наблюдается дымка, при ухудшении видимости до 1 км и менее - туман. В сухую погоду видимость может ухудшаться дымом, пылью или мглою.
Атмосферные явления - указаны явления, наблюдавшиеся в указанный момент времени.
Облачность - указаны через наклонную черту верхняя и нижняя облачность в баллах и высота нижней границы облаков в метрах. Внимание: облачность, как и прочие метеорологические величины в США измеряются автоматическими метеостанциями. Указанные значения в баллах носят условный характер и показывают процент времени, в течение которого, в среднем, лазерный луч высотомера отражался от облаков обратно.
T - Температура воздуха - температура, измеренная на высоте 2 м над землей.
Td - Температура точки росы - температура, при понижении до которой содержащийся в воздухе водяной пар достигнет насыщения.
f - Относительная влажность воздуха - влажноcть воздуха, измеренная на высоте 2 м над землей.
Te - Эффективная температура - температура, которую ощущает одетый по сезону человек в тени. Характеристика душности погоды. При расчете учитывается влияние влажности воздуха и скорости ветра на теплоощущения человека.
Tes - Эффективная температура на солнце - температура, которую ощущает человек, с поправкой на солнечный нагрев. Характеристика знойности погоды. Зависит от высоты солнца над горизонтом, облачности и скорости ветра. Ночью, в пасмурную погоду, а также при ветре 12 м/с и более поправка равна нулю.
P - Атмосферное давление - приведенное к уровню моря атмосферное давление.
Po - Атмосферное давление - измеренное на уровне метеостанции атмосферное давление.
Tmin - Минимальная температура - минимум температуры воздуха на высоте 2 м над землей.
Tmax - Максимальная температура - максимум температуры воздуха на высоте 2 м над землей.
R - Количество осадков - Количество выпавших осадков за 3 или 6 часов, мм.
SD - Снежный покров - Высота снежного покрова, см.